CZ-4B R/B, 25942

Orbit data source: Space-Track

CZ-4B R/B, 25942 is space debris in SSO originally from a launch on Thu, 14 Oct 1999 UTC launched from the Taiyaun Space Center, China (TSC). Debris objects in space refer to the collection of defunct objects orbiting the Earth. Examples of debris include non-operational satellites, rocket bodies, and fragments generated from explosions, collisions, or faulty payload assembly.

Loading next visibility...
Identifier
25942, 1999-057C
Orbit
SSO
Country
Flag of CNCN / PRC
Related business
Manufacturer
SAST
Mission
Spacecraft
Bus & Motor
CZ-4 STAGE 3, Unknown motor
Mass
~1,000 kg wet, ~1,000 kg dry
Launch date (UTC)
1999-10-14 (26 years ago)
Launch vehicle
Unknown
Launch site
Taiyaun Space Center, China (TSC)
Object type
Payload
Rocket body
Debris
Shape & HBR
Cyl, 2.5 m
Radar Cross Section
14.536 m², Large (>1 m²)

Expand to show TLE details & history
Last TLE update: 14 hours ago

TLE from 14 hours ago
0 CZ-4B R/B
1 25942U 99057C   26037.07939815  .00000527  00000-0  17951-3 0  9992
2 25942  98.7422  87.1735 0094944 245.4154 113.7117 14.38316754376742
Epoch: 2026-02-06T01:54Z
TLE epoch observation values (Epoch: 2026-02-06T01:54:20.000Z)
Latitude
0.00006°
Longitude
-77.63226°
Altitude
794.815 km
Speed
7.442 km/s
True Right ascension
05h 48m 41s
True Declination
0° 00' 00"
Sunlit
Object was in full shadow at epoch
Visualization orbit readout
Latitude
Unknown
Longitude
Unknown
Altitude
Unknown
Speed
Unknown
Apparent Right ascension
Unknown
Apparent Declination
Unknown
Sunlit
N/A
Visualization observer readout
Local Sidereal Time
17:43:28
Azimuth
Unknown
Elevation
Unknown
Doppler factor
Unknown
Orbital elements
Apogee altitude
828.984 km
Perigee altitude
693.417 km
Semi-major axis
7,139.338 km
Eccentricity
0.00949
Inclination
98.7422°
RAAN
87.1735°
Arg. of periapsis
245.4154°
True anomaly
114.70305°
Mean anomaly
113.7117°
Eccentric anomaly
114.20785°
Mean motion
3.59796 °/min
Orbital period
100.06 mins
BSTAR
0.00017951
Loading maneuver chart data...
Computing Atmospheric mass density...
Loading historical data...
Loading historical data...
Loading historical data...
Loading historical data...
Loading historical data...
Loading historical data...
Loading historical data...

Documentation

Showing up to 5 results
|